Total_Precipitation_Accumulation
1.74 2.01 2.40 2.81 3.01 3.17 3.26 3.51 3.66 3.34 2.78 2.28 1.74 1.44 1.31 1.13 0.97 0.82 0.69 0.68 0.61 0.66 0.68 0.57 0.60 0.52 0.51 0.54 0.56 0.65 0.68 0.66 0.66 0.84 0.94 0.80 0.65 0.64 0.59 0.59 0.66 0.70 0.82
1.31 1.43 1.65 1.98 2.06 2.26 2.57 2.88 3.04 2.85 2.30 2.02 1.72 1.51 1.37 1.21 1.07 0.90 0.74 0.60 0.56 0.59 0.56 0.62 0.50 0.50 0.53 0.54 0.54 0.61 0.61 0.55 0.56 0.73 0.90 0.86 0.86 0.78 0.44 0.53 0.62 0.65 0.83
0.96 0.98 1.06 1.24 1.54 2.01 2.14 2.14 2.32 2.41 2.15 1.99 1.83 1.63 1.49 1.29 1.14 0.98 0.79 0.58 0.54 0.56 0.54 0.52 0.49 0.56 0.46 0.55 0.63 0.63 0.61 0.58 0.51 0.53 0.66 0.73 0.73 0.69 0.61 0.53 0.55 0.62 0.79
0.62 0.77 0.81 0.88 1.08 1.39 1.65 1.85 2.03 2.12 1.98 1.83 1.61 1.39 1.17 0.97 0.79 0.75 0.74 0.68 0.61 0.55 0.51 0.44 0.49 0.55 0.51 0.64 0.51 0.54 0.60 0.59 0.50 0.45 0.40 0.41 0.47 0.56 0.68 0.64 0.55 0.59 0.66
0.33 0.48 0.61 0.73 0.75 0.95 1.31 1.67 1.96 2.11 1.91 1.61 1.44 1.35 1.19 1.04 0.88 0.80 0.89 0.78 0.71 0.61 0.54 0.50 0.51 0.48 0.46 0.55 0.56 0.65 0.59 0.58 0.55 0.45 0.39 0.39 0.38 0.36 0.42 0.58 0.63 0.62 0.48
0.23 0.33 0.40 0.49 0.62 0.75 0.97 1.20 1.47 1.69 1.66 1.49 1.37 1.30 1.25 1.16 1.02 0.82 0.76 0.72 0.71 0.68 0.63 0.60 0.59 0.56 0.49 0.49 0.51 0.56 0.61 0.65 0.69 0.57 0.44 0.44 0.42 0.35 0.36 0.34 0.37 0.49 0.41
0.18 0.27 0.35 0.33 0.44 0.54 0.62 0.75 1.02 1.21 1.29 1.28 1.26 1.19 1.24 1.23 1.12 0.96 0.81 0.73 0.65 0.61 0.62 0.60 0.62 0.61 0.61 0.58 0.56 0.53 0.53 0.60 0.66 0.61 0.50 0.42 0.34 0.34 0.37 0.35 0.29 0.31 0.30
0.14 0.19 0.28 0.30 0.30 0.37 0.48 0.60 0.78 0.91 0.97 0.99 1.07 1.06 1.04 0.98 1.03 1.06 0.92 0.78 0.70 0.64 0.60 0.60 0.57 0.57 0.60 0.61 0.65 0.54 0.48 0.53 0.56 0.54 0.59 0.52 0.32 0.29 0.35 0.37 0.40 0.42 0.40
0.19 0.20 0.27 0.27 0.22 0.28 0.36 0.41 0.56 0.69 0.78 0.86 0.95 0.94 0.93 0.87 0.88 0.88 0.80 0.73 0.77 0.75 0.69 0.63 0.61 0.62 0.61 0.61 0.65 0.62 0.59 0.58 0.51 0.50 0.59 0.55 0.43 0.33 0.28 0.35 0.44 0.55 0.56
0.25 0.25 0.25 0.30 0.26 0.26 0.32 0.36 0.44 0.56 0.66 0.75 0.80 0.81 0.90 0.88 0.94 0.87 0.77 0.69 0.67 0.66 0.68 0.67 0.61 0.62 0.64 0.69 0.72 0.73 0.79 0.80 0.71 0.62 0.63 0.61 0.54 0.52 0.41 0.38 0.44 0.53 0.58
0.21 0.23 0.20 0.22 0.22 0.23 0.25 0.27 0.38 0.48 0.57 0.68 0.74 0.80 0.82 0.84 0.89 0.91 0.89 0.82 0.76 0.72 0.69 0.68 0.65 0.64 0.66 0.68 0.70 0.72 0.83 0.95 0.99 0.88 0.79 0.74 0.70 0.70 0.60 0.56 0.54 0.53 0.60
0.13 0.15 0.17 0.18 0.17 0.21 0.22 0.22 0.27 0.35 0.42 0.60 0.73 0.76 0.83 0.88 0.87 0.87 0.99 0.98 0.94 0.90 0.85 0.80 0.80 0.75 0.68 0.69 0.69 0.67 0.70 0.83 1.01 1.17 1.17 1.03 0.91 0.86 0.75 0.70 0.68 0.65 0.70
0.16 0.16 0.20 0.24 0.20 0.20 0.23 0.26 0.29 0.35 0.39 0.51 0.63 0.73 0.81 0.88 0.92 0.96 1.05 1.14 1.11 1.08 1.07 1.02 0.97 0.90 0.85 0.82 0.82 0.77 0.73 0.76 0.85 1.01 1.17 1.20 1.16 1.01 0.91 0.83 0.76 0.72 0.70
0.17 0.20 0.30 0.33 0.24 0.21 0.25 0.28 0.33 0.39 0.49 0.64 0.74 0.80 0.93 1.03 1.07 1.04 1.11 1.17 1.21 1.24 1.24 1.21 1.11 1.02 0.97 0.93 0.96 0.95 0.92 0.91 0.90 0.89 0.93 1.05 1.19 1.15 1.06 0.97 0.91 0.86 0.86
0.23 0.27 0.36 0.41 0.38 0.34 0.33 0.36 0.47 0.56 0.72 0.91 0.96 0.97 1.02 1.08 1.14 1.22 1.27 1.38 1.43 1.44 1.49 1.42 1.31 1.23 1.16 1.06 1.13 1.22 1.21 1.21 1.10 0.98 0.90 0.88 1.00 1.09 1.10 0.98 0.92 0.94 0.96
0.31 0.33 0.42 0.51 0.54 0.51 0.51 0.60 0.71 0.86 1.08 1.30 1.36 1.42 1.45 1.45 1.48 1.50 1.53 1.64 1.68 1.65 1.58 1.50 1.48 1.42 1.27 1.35 1.33 1.23 1.23 1.32 1.31 1.20 1.11 0.97 0.89 0.91 0.99 1.04 1.03 0.99 0.97
0.44 0.43 0.53 0.65 0.73 0.71 0.69 0.77 0.87 1.06 1.24 1.35 1.35 1.40 1.48 1.53 1.54 1.57 1.59 1.58 1.61 1.59 1.53 1.54 1.56 1.53 1.52 1.41 1.19 1.06 1.03 1.10 1.16 1.19 1.15 0.97 0.87 0.90 0.89 0.99 0.99 0.91 0.83
0.51 0.55 0.63 0.69 0.72 0.76 0.79 0.86 0.92 0.98 1.17 1.25 1.23 1.22 1.25 1.27 1.30 1.38 1.42 1.43 1.44 1.41 1.38 1.35 1.28 1.24 1.21 1.14 0.99 0.94 0.92 0.95 0.93 1.01 1.07 1.00 0.89 0.84 0.82 0.77 0.71 0.67 0.65
0.56 0.63 0.71 0.68 0.68 0.73 0.78 0.77 0.81 0.86 0.96 1.02 1.04 1.01 1.04 1.08 1.13 1.20 1.29 1.36 1.35 1.23 1.11 1.04 1.03 1.04 1.07 1.11 0.95 0.88 0.88 0.92 0.86 0.86 0.87 0.87 0.78 0.73 0.62 0.61 0.55 0.52 0.52
0.49 0.59 0.71 0.71 0.67 0.67 0.68 0.69 0.72 0.77 0.86 0.96 1.03 1.02 1.00 1.03 1.07 1.14 1.21 1.22 1.20 1.16 1.12 1.06 1.02 1.01 1.02 1.09 0.92 0.86 0.87 0.92 0.88 0.88 0.90 0.93 0.80 0.65 0.50 0.52 0.56 0.51 0.46
0.51 0.55 0.64 0.74 0.72 0.73 0.74 0.76 0.73 0.74 0.78 0.86 0.93 0.94 0.92 0.93 0.96 1.02 1.06 1.12 1.15 1.13 1.07 0.99 0.98 1.01 1.01 0.98 0.81 0.72 0.70 0.76 0.77 0.74 0.74 0.82 0.76 0.60 0.45 0.46 0.50 0.45 0.44
0.38 0.50 0.58 0.66 0.71 0.77 0.83 0.83 0.75 0.73 0.77 0.87 0.90 0.88 0.88 0.86 0.85 0.85 0.88 0.93 0.96 0.94 0.92 0.91 0.92 0.98 0.96 0.82 0.69 0.57 0.55 0.59 0.62 0.71 0.72 0.80 0.79 0.63 0.53 0.46 0.43 0.36 0.32
0.31 0.36 0.45 0.55 0.58 0.68 0.77 0.84 0.82 0.81 0.78 0.82 0.86 0.84 0.84 0.85 0.88 0.90 0.92 0.93 0.92 0.92 0.89 0.84 0.77 0.77 0.80 0.79 0.63 0.50 0.44 0.48 0.56 0.77 0.96 0.97 0.91 0.76 0.63 0.56 0.53 0.41 0.35
0.38 0.40 0.46 0.48 0.49 0.54 0.62 0.72 0.78 0.81 0.83 0.81 0.75 0.72 0.73 0.74 0.79 0.88 0.94 0.96 0.95 0.92 0.86 0.81 0.77 0.76 0.78 0.79 0.73 0.63 0.53 0.54 0.61 0.80 0.98 1.09 1.11 1.03 0.90 0.80 0.71 0.55 0.49
0.45 0.46 0.48 0.48 0.48 0.51 0.54 0.61 0.68 0.72 0.74 0.76 0.74 0.70 0.67 0.68 0.72 0.76 0.80 0.78 0.79 0.79 0.76 0.72 0.72 0.73 0.75 0.74 0.69 0.62 0.57 0.55 0.58 0.71 0.97 1.17 1.30 1.32 1.27 1.12 1.00 0.87 0.75
0.51 0.51 0.52 0.52 0.53 0.56 0.58 0.57 0.62 0.72 0.79 0.79 0.74 0.70 0.68 0.67 0.68 0.68 0.72 0.79 0.71 0.71 0.66 0.64 0.59 0.55 0.58 0.58 0.52 0.47 0.46 0.46 0.51 0.65 0.90 1.14 1.32 1.39 1.47 1.44 1.32 1.13 0.96